[[{"header":{"parameterUnit":"m.s-1","parameterCategory":1,"la1":30.2991,"la2":30.254,"lo1":-89.0895,"lo2":-89.0444,"dy":0.0017,"dx":0.0017,"nx":28,"ny":28,"refTime":"2024-04-29T21:00:00:Z","depth":0,"parameterNumber":2,"parameterNumberName":"U-component_of_WINDS"},"data":[0,0,0,0,0,0,0,0,0,0,0,0,0,0,0,0,0,0,0,0,0,0,0,0,0,0,0,0,0,0,0,0,0,0,0,0,0,0,0,0,0,0,0,0,0,0,0,0,0,0,0,0,0,0,0,0,0,0,-1.7183,-1.7183,0,-1.711,-1.7109,-1.7109,-1.7026,-1.7025,-1.7023,-1.7022,-1.6946,-1.6945,-1.6944,0,0,0,0,0,0,0,0,0,0,0,0,0,-1.7252,-1.7251,-1.7184,-1.7183,-1.7182,-1.711,-1.7109,-1.7108,-1.7026,-1.7024,-1.7023,-1.7022,-1.6946,-1.6945,-1.6944,0,0,0,0,0,0,0,0,0,0,0,0,0,-1.7205,-1.7251,-1.7184,-1.7132,-1.7127,-1.7111,-1.7109,-1.7108,-1.7026,-1.7024,-1.7023,-1.7021,-1.6946,-1.6945,-1.6944,-1.6972,0,0,-1.6939,-1.6939,0,0,0,0,0,0,0,0,-1.7207,-1.7202,-1.714,-1.7136,-1.7129,-1.7075,-1.7105,-1.7062,-1.7027,-1.7064,-1.7022,-1.702,-1.699,-1.6985,-1.6975,-1.6968,-1.6965,-1.6939,-1.6938,-1.6938,-1.6938,0,0,0,0,0,0,0,-1.7211,-1.7205,-1.7154,-1.714,-1.7133,-1.7112,-1.7104,-1.7097,-1.7038,-1.7061,-1.7055,-1.7047,-1.6987,-1.6977,-1.6973,-1.6964,-1.6939,-1.6938,-1.6937,-1.6937,-1.6978,-1.698,0,0,0,0,0,0,-1.7222,-1.7208,-1.7157,-1.7152,-1.7165,-1.7113,-1.7103,-1.7095,-1.7038,-1.7028,-1.7049,-1.7044,-1.698,-1.6975,-1.697,-1.7,-1.6938,-1.6937,-1.6936,-1.6977,-1.6979,-1.6981,0,0,0,0,0,0,-1.7224,-1.7218,-1.716,-1.7179,-1.717,-1.7113,-1.7105,-1.7094,-1.7084,-1.7029,-1.7018,-1.705,-1.6978,-1.6972,-1.6973,-1.6996,-1.6936,-1.6935,-1.6974,-1.6977,-1.698,-1.7061,0,0,0,0,0,0,-1.7226,-1.7219,-1.7229,-1.7179,-1.7169,-1.7164,-1.7106,-1.7094,-1.7082,-1.7075,-1.7027,-1.7017,-1.6976,-1.6975,-1.6971,-1.6994,-1.6934,-1.6972,-1.6976,-1.6979,-1.7056,-1.7067,-1.7076,0,0,0,0,0,-1.7229,-1.7254,-1.723,-1.7225,-1.718,-1.7165,-1.7159,-1.7112,-1.7084,-1.7094,-1.7059,-1.7019,-1.6995,-1.6976,-1.6971,-1.6993,-1.697,-1.6975,-1.6979,-1.7052,-1.7065,-1.7075,0,0,0,0,0,0,-1.7308,-1.7247,-1.7219,-1.723,-1.7204,-1.7152,-1.7162,-1.7127,-1.7108,-1.7101,-1.7043,-1.7033,-1.7042,-1.7017,-1.6997,-1.7019,-1.6977,-1.698,-1.7034,-1.7046,-1.7055,-1.7061,-1.6933,0,0,0,0,0,-1.7327,-1.732,-1.7267,-1.7281,-1.727,-1.7219,-1.721,-1.7177,-1.7147,-1.7135,-1.71,-1.7073,-1.7059,-1.7051,-1.7035,-1.7053,-1.7042,-1.7066,-1.7075,-1.7084,-1.7087,-1.7096,-1.7107,-1.6995,-1.6995,-1.6995,0,0,-1.7365,-1.7331,-1.733,-1.7296,-1.7272,-1.7266,-1.721,-1.7206,-1.7201,-1.7134,-1.7133,-1.7107,-1.7072,-1.7082,-1.7085,-1.7062,-1.7116,-1.7089,-1.7096,-1.7095,-1.7102,-1.7112,-1.7122,-1.6998,-1.6998,-1.6997,0,0,-1.7432,-1.7405,-1.7415,-1.7392,-1.7357,-1.7323,-1.7326,-1.7279,-1.726,-1.7258,-1.7208,-1.7202,-1.7179,-1.7157,-1.7143,-1.7205,-1.7167,-1.7201,-1.7251,-1.7261,-1.727,-1.7277,-1.73,-1.7309,-1.7205,-1.7205,-1.7205,0,-1.7484,-1.7474,-1.7424,-1.7424,-1.7411,-1.7352,-1.7361,-1.7342,-1.7303,-1.7295,-1.7271,-1.7243,-1.7215,-1.722,-1.7235,-1.7225,-1.7227,-1.7206,-1.7272,-1.7279,-1.7286,-1.7307,-1.7315,-1.721,-1.7209,-1.7209,-1.7208,0,-1.754,-1.7534,-1.7546,-1.7511,-1.7499,-1.7504,-1.7456,-1.745,-1.7418,-1.7387,-1.7387,-1.7353,-1.733,-1.7328,-1.7296,-1.7329,-1.7316,-1.7283,-1.724,-1.7302,-1.7321,-1.7328,-1.7216,-1.7215,-1.7213,-1.7212,0,0,-1.7653,-1.7592,-1.7598,-1.7582,-1.7539,-1.7534,-1.7536,-1.7515,-1.7512,-1.7487,-1.7488,-1.7472,-1.7442,-1.7426,-1.7391,-1.7399,-1.7452,-1.7365,-1.7363,-1.7383,-1.7487,-1.7512,-1.7522,-1.7427,-1.7428,-1.7429,-1.749,0,-1.7713,-1.7714,-1.7671,-1.7684,-1.7678,-1.7623,-1.7625,-1.76,-1.7572,-1.7563,-1.7531,-1.7521,-1.7481,-1.7472,-1.7478,-1.7444,-1.7472,-1.7439,-1.7427,-1.7428,-1.7438,-1.7532,-1.7558,-1.7617,-1.7497,-1.7498,-1.7499,0,-1.7782,-1.7763,-1.7777,-1.7735,-1.7731,-1.7734,-1.7712,-1.7704,-1.7674,-1.7653,-1.7637,-1.7598,-1.7598,-1.7558,-1.7558,-1.7537,-1.753,-1.7513,-1.7514,-1.7511,-1.7467,-1.7532,-1.7634,-1.7644,-1.751,-1.7509,-1.7508,0,-1.7865,-1.7842,-1.7848,-1.7836,-1.7787,-1.7791,-1.7771,-1.774,-1.773,-1.7711,-1.7704,-1.7685,-1.7674,-1.7661,-1.7618,-1.7592,-1.7623,-1.7579,-1.7606,-1.7607,-1.7614,-1.7615,-1.7718,-1.761,-1.761,-1.761,-1.761,0,-1.7936,-1.7946,-1.7884,-1.7888,-1.7898,-1.7849,-1.786,-1.7835,-1.7808,-1.7806,-1.7756,-1.7755,-1.7699,-1.7692,-1.7658,-1.7664,-1.7659,-1.7643,-1.7634,-1.7647,-1.765,-1.7642,-1.7637,-1.7612,-1.7611,-1.7611,-1.7611,0,-1.8029,-1.7988,-1.7991,-1.7945,-1.7934,-1.7944,-1.7905,-1.7907,-1.7876,-1.7874,-1.7871,-1.7823,-1.7812,-1.7769,-1.7747,-1.7724,-1.7741,-1.7723,-1.7752,-1.7746,-1.7776,-1.7774,-1.7878,-1.7889,-1.7774,-1.7775,-1.7776,0,-1.8078,-1.8085,-1.8041,-1.8036,-1.8019,-1.8011,-1.8002,-1.7954,-1.7946,-1.7914,-1.792,-1.7905,-1.7891,-1.7877,-1.784,-1.7823,-1.7805,-1.7843,-1.7802,-1.7816,-1.7806,-1.7807,-1.7808,-1.7851,-1.7853,-1.7854,-1.7855,0,-1.8168,-1.8148,-1.8136,-1.8118,-1.8109,-1.8092,-1.8072,-1.8071,-1.8018,-1.8012,-1.8,-1.799,-1.7969,-1.7955,-1.7933,-1.7912,-1.7875,-1.7868,-1.7874,-1.7888,-1.7904,-1.7896,-1.7776,-1.7866,-1.7865,-1.7864,-1.7863,-1.7863,-1.824,-1.8245,-1.8215,-1.8204,-1.8185,-1.8168,-1.8168,-1.8138,-1.8128,-1.8108,-1.808,-1.8073,-1.8044,-1.8011,-1.7994,-1.7988,-1.7967,-1.7974,-1.7976,-1.7979,-1.7986,-1.7905,-1.7983,-1.7983,-1.7983,-1.7982,-1.7982,0,-1.8329,-1.8308,-1.8298,-1.8273,-1.8265,-1.8232,-1.8209,-1.8204,-1.8199,-1.8176,-1.8163,-1.8151,-1.8139,-1.8102,-1.8085,-1.8088,-1.8071,-1.8085,-1.8085,-1.8081,-1.8005,-1.8003,-1.81,-1.81,-1.81,-1.81,-1.81,-1.81,-1.8374,-1.838,-1.8357,-1.8353,-1.8331,-1.8324,-1.8314,-1.8299,-1.828,-1.827,-1.8259,-1.8236,-1.8207,-1.8189,-1.8176,-1.8165,-1.8162,-1.8183,-1.8167,-1.8097,-1.8086,-1.8075,-1.8072,-1.8182,-1.8182,-1.8242,-1.8243,-1.8243]},{"header":{"parameterUnit":"m.s-1","parameterCategory":1,"la1":30.2991,"la2":30.254,"lo1":-89.0895,"lo2":-89.0444,"dy":0.0017,"dx":0.0017,"nx":28,"ny":28,"refTime":"2024-04-29T21:00:00:Z","depth":0,"parameterNumber":3,"parameterNumberName":"V-component_of_WINDS"},"data":[0,0,0,0,0,0,0,0,0,0,0,0,0,0,0,0,0,0,0,0,0,0,0,0,0,0,0,0,0,0,0,0,0,0,0,0,0,0,0,0,0,0,0,0,0,0,0,0,0,0,0,0,0,0,0,0,0,0,3.138,3.1381,0,3.1391,3.1391,3.1392,3.1437,3.1438,3.1439,3.144,3.1447,3.1446,3.1445,0,0,0,0,0,0,0,0,0,0,0,0,0,3.1396,3.1395,3.138,3.1381,3.1381,3.1391,3.1391,3.1392,3.1437,3.1438,3.144,3.1441,3.1447,3.1446,3.1445,0,0,0,0,0,0,0,0,0,0,0,0,0,3.1396,3.1395,3.138,3.1405,3.1407,3.1391,3.1391,3.1392,3.1437,3.1438,3.144,3.1441,3.1447,3.1446,3.1445,3.1405,0,0,3.1441,3.1441,0,0,0,0,0,0,0,0,3.1396,3.1395,3.1401,3.1403,3.1406,3.1415,3.1399,3.1396,3.1436,3.1425,3.144,3.1442,3.1435,3.1434,3.1433,3.1406,3.1406,3.1441,3.144,3.144,3.144,0,0,0,0,0,0,0,3.1396,3.1395,3.1385,3.1401,3.1404,3.1414,3.1416,3.1399,3.1421,3.1426,3.143,3.1431,3.1436,3.1434,3.1433,3.1406,3.1441,3.144,3.1439,3.1439,3.1348,3.1346,0,0,0,0,0,0,3.1393,3.1395,3.1384,3.1385,3.1405,3.1413,3.1415,3.141,3.1421,3.1424,3.1429,3.1433,3.1435,3.1435,3.1434,3.1389,3.144,3.1439,3.1438,3.1349,3.1347,3.1345,0,0,0,0,0,0,3.1393,3.1392,3.1384,3.1391,3.1391,3.1411,3.1405,3.1409,3.1407,3.1423,3.1427,3.1423,3.1436,3.1435,3.1413,3.1389,3.1438,3.1437,3.1351,3.1349,3.1346,3.1298,0,0,0,0,0,0,3.1393,3.1391,3.1377,3.139,3.139,3.1363,3.1404,3.1408,3.1406,3.141,3.1419,3.1421,3.1438,3.1414,3.1411,3.1389,3.1436,3.1353,3.135,3.1347,3.1301,3.1294,3.1287,0,0,0,0,0,3.1394,3.1362,3.1376,3.1375,3.1373,3.1362,3.1362,3.1382,3.1404,3.1389,3.1399,3.1421,3.1393,3.1411,3.1409,3.1385,3.1355,3.1351,3.1347,3.1304,3.1295,3.1287,0,0,0,0,0,0,3.1343,3.1364,3.138,3.1352,3.1355,3.137,3.1352,3.1372,3.1368,3.1372,3.1396,3.1398,3.1371,3.1376,3.1397,3.1348,3.1377,3.1373,3.1346,3.1337,3.133,3.1329,3.1435,0,0,0,0,0,3.1329,3.132,3.1338,3.1311,3.1312,3.1331,3.1327,3.1343,3.1347,3.1348,3.1357,3.1358,3.135,3.1344,3.1337,3.1302,3.1305,3.1285,3.1278,3.1272,3.1268,3.125,3.1242,3.1333,3.1333,3.1333,0,0,3.1299,3.1309,3.1302,3.1301,3.1305,3.1294,3.1332,3.1318,3.131,3.1346,3.1325,3.1332,3.1335,3.1307,3.1294,3.1309,3.1243,3.1267,3.1262,3.1261,3.1246,3.1237,3.1229,3.133,3.1331,3.1331,0,0,3.1239,3.1246,3.1225,3.1229,3.1236,3.125,3.1245,3.1257,3.1263,3.1243,3.127,3.126,3.1245,3.1247,3.1245,3.1188,3.1208,3.1184,3.1147,3.113,3.1123,3.1117,3.1097,3.1089,3.118,3.118,3.118,0,3.1201,3.1187,3.1211,3.1196,3.1195,3.1229,3.1207,3.121,3.1213,3.1211,3.1229,3.1211,3.1216,3.1189,3.1175,3.1173,3.1167,3.1183,3.1122,3.1116,3.1111,3.1092,3.1084,3.1177,3.1178,3.1178,3.1178,0,3.1139,3.1129,3.111,3.1115,3.1112,3.1094,3.1115,3.1109,3.1125,3.1136,3.1116,3.1123,3.1119,3.1113,3.1128,3.1088,3.1098,3.1118,3.1149,3.1099,3.1082,3.1074,3.1173,3.1174,3.1175,3.1176,0,0,3.1047,3.1067,3.106,3.1063,3.1074,3.1065,3.1049,3.1046,3.104,3.1042,3.1028,3.1015,3.1035,3.1034,3.1049,3.1034,3.0989,3.1057,3.1057,3.1044,3.0946,3.093,3.0922,3.1002,3.1001,3.1,3.0946,0,3.099,3.0964,3.0986,3.0956,3.0946,3.0979,3.0964,3.0969,3.0979,3.0972,3.0983,3.0974,3.1,3.1,3.0987,3.0997,3.0969,3.1001,3.0989,3.0989,3.0988,3.0912,3.0896,3.0844,3.0939,3.0938,3.0937,0,3.092,3.0921,3.089,3.0904,3.0901,3.0887,3.0887,3.088,3.0886,3.0895,3.0894,3.0914,3.0898,3.0928,3.0906,3.0928,3.0924,3.0928,3.0927,3.0926,3.096,3.091,3.0828,3.082,3.0926,3.0927,3.0928,0,3.0856,3.0849,3.083,3.0832,3.0847,3.0837,3.0843,3.0851,3.0848,3.0848,3.0846,3.0843,3.0841,3.0838,3.0857,3.0877,3.0832,3.0864,3.0839,3.0838,3.0828,3.0828,3.0744,3.0825,3.0825,3.0825,3.0825,0,3.0791,3.077,3.0802,3.079,3.0768,3.0794,3.0771,3.078,3.0787,3.0777,3.0804,3.0794,3.0819,3.0811,3.0825,3.0805,3.0804,3.081,3.0814,3.0808,3.0807,3.0806,3.081,3.0823,3.0824,3.0824,3.0824,0,3.0716,3.0736,3.0717,3.0735,3.0738,3.0722,3.0736,3.0725,3.0738,3.0725,3.0724,3.0743,3.0736,3.0754,3.0748,3.0758,3.0729,3.0739,3.0728,3.0731,3.0705,3.0707,3.0617,3.0607,3.0694,3.0693,3.0692,0,3.0673,3.0658,3.0674,3.0671,3.0676,3.0668,3.0667,3.0691,3.0688,3.0694,3.0683,3.0678,3.0675,3.0661,3.0674,3.067,3.068,3.0649,3.0679,3.0674,3.068,3.0681,3.0679,3.0642,3.0641,3.064,3.0639,0,3.0594,3.0605,3.0602,3.0603,3.06,3.0602,3.0605,3.0599,3.0626,3.062,3.0614,3.0612,3.0608,3.0602,3.0601,3.0606,3.0627,3.063,3.0624,3.0617,3.0612,3.0615,3.0711,3.0632,3.0632,3.0633,3.0633,3.0634,3.0534,3.0523,3.0533,3.0529,3.0535,3.0537,3.0529,3.0541,3.0537,3.0536,3.055,3.0541,3.0548,3.0549,3.0552,3.0545,3.0559,3.055,3.0548,3.0545,3.0541,3.0613,3.0545,3.0545,3.0545,3.0545,3.0545,0,3.0457,3.0466,3.0462,3.0467,3.0463,3.0485,3.049,3.0485,3.0477,3.0482,3.048,3.0472,3.0468,3.0481,3.0478,3.0469,3.0479,3.0468,3.0469,3.047,3.0529,3.0534,3.046,3.046,3.046,3.046,3.046,3.046,3.0417,3.04,3.0413,3.0398,3.0407,3.0399,3.04,3.0402,3.0407,3.0398,3.0395,3.0405,3.0413,3.0411,3.0408,3.0412,3.041,3.0395,3.0402,3.0457,3.0465,3.0473,3.0479,3.0394,3.0394,3.0344,3.0344,3.0343]}]]